Year,Month,Day,Hour,Minute,Value (Times are PST for temperature in C)
2013,10,14,00,00,7.00
2013,10,14,00,01,7.00
2013,10,14,00,02,7.00
2013,10,14,00,03,7.00
2013,10,14,00,04,6.90
2013,10,14,00,05,6.90
2013,10,14,00,06,6.90
2013,10,14,00,07,6.90
2013,10,14,00,08,6.90
2013,10,14,00,09,6.90
2013,10,14,00,10,6.90
2013,10,14,00,11,6.90
2013,10,14,00,12,6.90
2013,10,14,00,13,6.90
2013,10,14,00,14,6.90
2013,10,14,00,15,6.90
2013,10,14,00,16,6.90
2013,10,14,00,17,6.90
2013,10,14,00,18,6.90
2013,10,14,00,19,6.90
2013,10,14,00,20,6.90
2013,10,14,00,21,6.90
2013,10,14,00,22,6.90
2013,10,14,00,23,6.90
2013,10,14,00,24,6.90
2013,10,14,00,25,6.90
2013,10,14,00,26,6.90
2013,10,14,00,27,6.90
2013,10,14,00,28,6.90
2013,10,14,00,29,6.90
2013,10,14,00,30,6.90
2013,10,14,00,31,6.90
2013,10,14,00,32,6.90
2013,10,14,00,33,6.90
2013,10,14,00,34,6.90
2013,10,14,00,35,6.90
2013,10,14,00,36,6.90
2013,10,14,00,37,6.90
2013,10,14,00,38,6.90
2013,10,14,00,39,6.90
2013,10,14,00,40,6.90
2013,10,14,00,41,6.90
2013,10,14,00,42,6.90
2013,10,14,00,43,6.90
2013,10,14,00,44,6.90
2013,10,14,00,45,6.90
2013,10,14,00,46,6.90
2013,10,14,00,47,6.90
2013,10,14,00,48,6.90
2013,10,14,00,49,6.90
2013,10,14,00,50,6.90
2013,10,14,00,51,6.90
2013,10,14,00,52,6.90
2013,10,14,00,53,6.80
2013,10,14,00,54,6.80
2013,10,14,00,55,6.80
2013,10,14,00,56,6.80
2013,10,14,00,57,6.80
2013,10,14,00,58,6.80
2013,10,14,00,59,6.70
2013,10,14,01,00,6.70
2013,10,14,01,01,6.70
2013,10,14,01,02,6.70
2013,10,14,01,03,6.70
2013,10,14,01,04,6.70
2013,10,14,01,05,6.70
2013,10,14,01,06,6.80
2013,10,14,01,07,6.80
2013,10,14,01,08,6.80
2013,10,14,01,09,6.90
2013,10,14,01,10,6.90
2013,10,14,01,11,6.80
2013,10,14,01,12,6.80
2013,10,14,01,13,6.80
2013,10,14,01,14,6.90
2013,10,14,01,15,6.90
2013,10,14,01,16,7.00
2013,10,14,01,17,7.00
2013,10,14,01,18,7.00
2013,10,14,01,19,7.00
2013,10,14,01,20,7.00
2013,10,14,01,21,7.00
2013,10,14,01,22,7.00
2013,10,14,01,23,7.00
2013,10,14,01,24,6.90
2013,10,14,01,25,6.90
2013,10,14,01,26,6.90
2013,10,14,01,27,6.90
2013,10,14,01,28,6.80
2013,10,14,01,29,6.80
2013,10,14,01,30,6.70
2013,10,14,01,31,6.70
2013,10,14,01,32,6.60
2013,10,14,01,33,6.60
2013,10,14,01,34,6.50
2013,10,14,01,35,6.50
2013,10,14,01,36,6.40
2013,10,14,01,37,6.40
2013,10,14,01,38,6.40
2013,10,14,01,39,6.40
2013,10,14,01,40,6.30
2013,10,14,01,41,6.30
2013,10,14,01,42,6.20
2013,10,14,01,43,6.20
2013,10,14,01,44,6.20
2013,10,14,01,45,6.20
2013,10,14,01,46,6.20
2013,10,14,01,47,6.20
2013,10,14,01,48,6.20
2013,10,14,01,49,6.20
2013,10,14,01,50,6.20
2013,10,14,01,51,6.20
2013,10,14,01,52,6.20
2013,10,14,01,53,6.20
2013,10,14,01,54,6.20
2013,10,14,01,55,6.20
2013,10,14,01,56,6.20
2013,10,14,01,57,6.20
2013,10,14,01,58,6.20
2013,10,14,01,59,6.20
2013,10,14,02,00,6.30
2013,10,14,02,01,6.30
2013,10,14,02,02,6.30
2013,10,14,02,03,6.30
2013,10,14,02,04,6.30
2013,10,14,02,05,6.30
2013,10,14,02,06,6.30
2013,10,14,02,07,6.30
2013,10,14,02,08,6.30
2013,10,14,02,09,6.20
2013,10,14,02,10,6.20
2013,10,14,02,11,6.20
2013,10,14,02,12,6.10
2013,10,14,02,13,6.10
2013,10,14,02,14,6.10
2013,10,14,02,15,6.10
2013,10,14,02,16,6.10
2013,10,14,02,17,6.00
2013,10,14,02,18,6.00
2013,10,14,02,19,5.90
2013,10,14,02,20,5.90
2013,10,14,02,21,5.90
2013,10,14,02,22,5.90
2013,10,14,02,23,5.90
2013,10,14,02,24,5.80
2013,10,14,02,25,5.80
2013,10,14,02,26,5.80
2013,10,14,02,27,5.80
2013,10,14,02,28,5.70
2013,10,14,02,29,5.70
2013,10,14,02,30,5.70
2013,10,14,02,31,5.60
2013,10,14,02,32,5.60
2013,10,14,02,33,5.60
2013,10,14,02,34,5.50
2013,10,14,02,35,5.50
2013,10,14,02,36,5.40
2013,10,14,02,37,5.40
2013,10,14,02,38,5.30
2013,10,14,02,39,5.30
2013,10,14,02,40,5.20
2013,10,14,02,41,5.20
2013,10,14,02,42,5.20
2013,10,14,02,43,5.20
2013,10,14,02,44,5.20
2013,10,14,02,45,5.30
2013,10,14,02,46,5.30
2013,10,14,02,47,5.30
2013,10,14,02,48,5.40
2013,10,14,02,49,5.40
2013,10,14,02,50,5.50
2013,10,14,02,51,5.60
2013,10,14,02,52,5.60
2013,10,14,02,53,5.60
2013,10,14,02,54,5.60
2013,10,14,02,55,5.60
2013,10,14,02,56,5.60
2013,10,14,02,57,5.50
2013,10,14,02,58,5.50
2013,10,14,02,59,5.40
2013,10,14,03,00,5.40
2013,10,14,03,01,5.40
2013,10,14,03,02,5.40
2013,10,14,03,03,5.30
2013,10,14,03,04,5.30
2013,10,14,03,05,5.40
2013,10,14,03,06,5.50
2013,10,14,03,07,5.50
2013,10,14,03,08,5.60
2013,10,14,03,09,5.70
2013,10,14,03,10,5.70
2013,10,14,03,11,5.70
2013,10,14,03,12,5.60
2013,10,14,03,13,5.60
2013,10,14,03,14,5.60
2013,10,14,03,15,5.60
2013,10,14,03,16,5.60
2013,10,14,03,17,5.60
2013,10,14,03,18,5.60
2013,10,14,03,19,5.60
2013,10,14,03,20,5.70
2013,10,14,03,21,5.70
2013,10,14,03,22,5.70
2013,10,14,03,23,5.80
2013,10,14,03,24,5.80
2013,10,14,03,25,5.90
2013,10,14,03,26,5.90
2013,10,14,03,27,6.00
2013,10,14,03,28,6.10
2013,10,14,03,29,6.10
2013,10,14,03,30,6.20
2013,10,14,03,31,6.20
2013,10,14,03,32,6.20
2013,10,14,03,33,6.20
2013,10,14,03,34,6.20
2013,10,14,03,35,6.10
2013,10,14,03,36,6.10
2013,10,14,03,37,6.00
2013,10,14,03,38,6.00
2013,10,14,03,39,5.90
2013,10,14,03,40,5.90
2013,10,14,03,41,5.80
2013,10,14,03,42,5.80
2013,10,14,03,43,5.70
2013,10,14,03,44,5.60
2013,10,14,03,45,5.60
2013,10,14,03,46,5.50
2013,10,14,03,47,5.50
2013,10,14,03,48,5.40
2013,10,14,03,49,5.40
2013,10,14,03,50,5.40
2013,10,14,03,51,5.40
2013,10,14,03,52,5.40
2013,10,14,03,53,5.30
2013,10,14,03,54,5.30
2013,10,14,03,55,5.30
2013,10,14,03,56,5.40
2013,10,14,03,57,5.40
2013,10,14,03,58,5.40
2013,10,14,03,59,5.40
2013,10,14,04,00,5.40
2013,10,14,04,01,5.40
2013,10,14,04,02,5.40
2013,10,14,04,03,5.40
2013,10,14,04,04,5.40
2013,10,14,04,05,5.40
2013,10,14,04,06,5.30
2013,10,14,04,07,5.30
2013,10,14,04,08,5.30
2013,10,14,04,09,5.30
2013,10,14,04,10,5.30
2013,10,14,04,11,5.30
2013,10,14,04,12,5.30
2013,10,14,04,13,5.30
2013,10,14,04,14,5.30
2013,10,14,04,15,5.30
2013,10,14,04,16,5.20
2013,10,14,04,17,5.20
2013,10,14,04,18,5.10
2013,10,14,04,19,5.10
2013,10,14,04,20,5.10
2013,10,14,04,21,5.10
2013,10,14,04,22,5.10
2013,10,14,04,23,5.10
2013,10,14,04,24,5.10
2013,10,14,04,25,5.00
2013,10,14,04,26,5.00
2013,10,14,04,27,5.00
2013,10,14,04,28,5.00
2013,10,14,04,29,5.00
2013,10,14,04,30,5.00
2013,10,14,04,31,5.00
2013,10,14,04,32,5.00
2013,10,14,04,33,5.00
2013,10,14,04,34,5.00
2013,10,14,04,35,5.00
2013,10,14,04,36,5.00
2013,10,14,04,37,5.00
2013,10,14,04,38,5.00
2013,10,14,04,39,5.00
2013,10,14,04,40,5.00
2013,10,14,04,41,5.00
2013,10,14,04,42,5.00
2013,10,14,04,43,5.00
2013,10,14,04,44,5.10
2013,10,14,04,45,5.10
2013,10,14,04,46,5.00
2013,10,14,04,47,5.00
2013,10,14,04,48,5.00
2013,10,14,04,49,5.00
2013,10,14,04,50,4.90
2013,10,14,04,51,4.90
2013,10,14,04,52,5.00
2013,10,14,04,53,5.00
2013,10,14,04,54,5.00
2013,10,14,04,55,4.90
2013,10,14,04,56,4.90
2013,10,14,04,57,4.90
2013,10,14,04,58,4.90
2013,10,14,04,59,4.90
2013,10,14,05,00,4.90
2013,10,14,05,01,4.90
2013,10,14,05,02,4.90
2013,10,14,05,03,4.80
2013,10,14,05,04,4.80
2013,10,14,05,05,4.80
2013,10,14,05,06,4.80
2013,10,14,05,07,4.70
2013,10,14,05,08,4.70
2013,10,14,05,09,4.70
2013,10,14,05,10,4.70
2013,10,14,05,11,4.70
2013,10,14,05,12,4.70
2013,10,14,05,13,4.70
2013,10,14,05,14,4.70
2013,10,14,05,15,4.70
2013,10,14,05,16,4.70
2013,10,14,05,17,4.70
2013,10,14,05,18,4.70
2013,10,14,05,19,4.70
2013,10,14,05,20,4.70
2013,10,14,05,21,4.70
2013,10,14,05,22,4.70
2013,10,14,05,23,4.70
2013,10,14,05,24,4.70
2013,10,14,05,25,4.80
2013,10,14,05,26,4.80
2013,10,14,05,27,4.80
2013,10,14,05,28,4.80
2013,10,14,05,29,4.80
2013,10,14,05,30,4.80
2013,10,14,05,31,4.70
2013,10,14,05,32,4.70
2013,10,14,05,33,4.70
2013,10,14,05,34,4.70
2013,10,14,05,35,4.70
2013,10,14,05,36,4.70
2013,10,14,05,37,4.70
2013,10,14,05,38,4.70
2013,10,14,05,39,4.70
2013,10,14,05,40,4.70
2013,10,14,05,41,4.70
2013,10,14,05,42,4.70
2013,10,14,05,43,4.70
2013,10,14,05,44,4.80
2013,10,14,05,45,4.80
2013,10,14,05,46,4.80
2013,10,14,05,47,4.70
2013,10,14,05,48,4.60
2013,10,14,05,49,4.60
2013,10,14,05,50,4.50
2013,10,14,05,51,4.50
2013,10,14,05,52,4.50
2013,10,14,05,53,4.50
2013,10,14,05,54,4.50
2013,10,14,05,55,4.50
2013,10,14,05,56,4.60
2013,10,14,05,57,4.60
2013,10,14,05,58,4.80
2013,10,14,05,59,4.90
2013,10,14,06,00,5.00
2013,10,14,06,01,5.10
2013,10,14,06,02,5.20
2013,10,14,06,03,5.30
2013,10,14,06,04,5.40
2013,10,14,06,05,5.40
2013,10,14,06,06,5.50
2013,10,14,06,07,5.60
2013,10,14,06,08,5.70
2013,10,14,06,09,5.70
2013,10,14,06,10,5.70
2013,10,14,06,11,5.60
2013,10,14,06,12,5.60
2013,10,14,06,13,5.60
2013,10,14,06,14,5.60
2013,10,14,06,15,5.70
2013,10,14,06,16,5.70
2013,10,14,06,17,5.80
2013,10,14,06,18,5.90
2013,10,14,06,19,6.10
2013,10,14,06,20,6.20
2013,10,14,06,21,6.30
2013,10,14,06,22,6.40
2013,10,14,06,23,6.40
2013,10,14,06,24,6.50
2013,10,14,06,25,6.60
2013,10,14,06,26,6.60
2013,10,14,06,27,6.60
2013,10,14,06,28,6.60
2013,10,14,06,29,6.60
2013,10,14,06,30,6.60
2013,10,14,06,31,6.60
2013,10,14,06,32,6.60
2013,10,14,06,33,6.60
2013,10,14,06,34,6.60
2013,10,14,06,35,6.60
2013,10,14,06,36,6.60
2013,10,14,06,37,6.50
2013,10,14,06,38,6.40
2013,10,14,06,39,6.40
2013,10,14,06,40,6.30
2013,10,14,06,41,6.20
2013,10,14,06,42,6.20
2013,10,14,06,43,6.10
2013,10,14,06,44,6.00
2013,10,14,06,45,6.00
2013,10,14,06,46,5.90
2013,10,14,06,47,5.90
2013,10,14,06,48,5.90
2013,10,14,06,49,5.90
2013,10,14,06,50,5.80
2013,10,14,06,51,5.80
2013,10,14,06,52,5.80
2013,10,14,06,53,5.80
2013,10,14,06,54,5.80
2013,10,14,06,55,5.80
2013,10,14,06,56,5.80
2013,10,14,06,57,5.80
2013,10,14,06,58,5.90
2013,10,14,06,59,5.90
2013,10,14,07,00,5.90
2013,10,14,07,01,5.90
2013,10,14,07,02,5.90
2013,10,14,07,03,6.00
2013,10,14,07,04,6.00
2013,10,14,07,05,6.00
2013,10,14,07,06,6.10
2013,10,14,07,07,6.10
2013,10,14,07,08,6.10
2013,10,14,07,09,6.20
2013,10,14,07,10,6.20
2013,10,14,07,11,6.20
2013,10,14,07,12,6.20
2013,10,14,07,13,6.20
2013,10,14,07,14,6.20
2013,10,14,07,15,6.20
2013,10,14,07,16,6.20
2013,10,14,07,17,6.10
2013,10,14,07,18,6.10
2013,10,14,07,19,6.20
2013,10,14,07,20,6.20
2013,10,14,07,21,6.20
2013,10,14,07,22,6.20
2013,10,14,07,23,6.20
2013,10,14,07,24,6.10
2013,10,14,07,25,6.10
2013,10,14,07,26,6.10
2013,10,14,07,27,6.20
2013,10,14,07,28,6.20
2013,10,14,07,29,6.20
2013,10,14,07,30,6.20
2013,10,14,07,31,6.30
2013,10,14,07,32,6.30
2013,10,14,07,33,6.30
2013,10,14,07,34,6.30
2013,10,14,07,35,6.30
2013,10,14,07,36,6.40
2013,10,14,07,37,6.30
2013,10,14,07,38,6.30
2013,10,14,07,39,6.30
2013,10,14,07,40,6.30
2013,10,14,07,41,6.40
2013,10,14,07,42,6.40
2013,10,14,07,43,6.40
2013,10,14,07,44,6.40
2013,10,14,07,45,6.40
2013,10,14,07,46,6.40
2013,10,14,07,47,6.40
2013,10,14,07,48,6.50
2013,10,14,07,49,6.50
2013,10,14,07,50,6.60
2013,10,14,07,51,6.60
2013,10,14,07,52,6.60
2013,10,14,07,53,6.60
2013,10,14,07,54,6.60
2013,10,14,07,55,6.60
2013,10,14,07,56,6.60
2013,10,14,07,57,6.60
2013,10,14,07,58,6.70
2013,10,14,07,59,6.70
2013,10,14,08,00,6.70
2013,10,14,08,01,6.70
2013,10,14,08,02,6.70
2013,10,14,08,03,6.70
2013,10,14,08,04,6.80
2013,10,14,08,05,6.80
2013,10,14,08,06,6.80
2013,10,14,08,07,6.80
2013,10,14,08,08,6.90
2013,10,14,08,09,6.90
2013,10,14,08,10,7.00
2013,10,14,08,11,7.00
2013,10,14,08,12,7.10
2013,10,14,08,13,7.10
2013,10,14,08,14,7.10
2013,10,14,08,15,7.20
2013,10,14,08,16,7.30
2013,10,14,08,17,7.30
2013,10,14,08,18,7.40
2013,10,14,08,19,7.40
2013,10,14,08,20,7.50
2013,10,14,08,21,7.60
2013,10,14,08,22,7.60
2013,10,14,08,23,7.70
2013,10,14,08,24,7.80
2013,10,14,08,25,7.80
2013,10,14,08,26,7.90
2013,10,14,08,27,8.00
2013,10,14,08,28,8.10
2013,10,14,08,29,8.10
2013,10,14,08,30,8.10
2013,10,14,08,31,8.20
2013,10,14,08,32,8.20
2013,10,14,08,33,8.30
2013,10,14,08,34,8.30
2013,10,14,08,35,8.40
2013,10,14,08,36,8.40
2013,10,14,08,37,8.50
2013,10,14,08,38,8.60
2013,10,14,08,39,8.60
2013,10,14,08,40,8.60
2013,10,14,08,41,8.60
2013,10,14,08,42,8.70
2013,10,14,08,43,8.70
2013,10,14,08,44,8.70
2013,10,14,08,45,8.70
2013,10,14,08,46,8.70
2013,10,14,08,47,8.70
2013,10,14,08,48,8.80
2013,10,14,08,49,8.80
2013,10,14,08,50,8.80
2013,10,14,08,51,8.80
2013,10,14,08,52,8.90
2013,10,14,08,53,8.90
2013,10,14,08,54,8.90
2013,10,14,08,55,9.00
2013,10,14,08,56,9.00
2013,10,14,08,57,9.00
2013,10,14,08,58,9.10
2013,10,14,08,59,9.10
2013,10,14,09,00,9.10
2013,10,14,09,01,9.10
2013,10,14,09,02,9.10
2013,10,14,09,03,9.10
2013,10,14,09,04,9.20
2013,10,14,09,05,9.20
2013,10,14,09,06,9.20
2013,10,14,09,07,9.20
2013,10,14,09,08,9.20
2013,10,14,09,09,9.20
2013,10,14,09,10,9.20
2013,10,14,09,11,9.20
2013,10,14,09,12,9.30
2013,10,14,09,13,9.30
2013,10,14,09,14,9.30
2013,10,14,09,15,9.30
2013,10,14,09,16,9.30
2013,10,14,09,17,9.40
2013,10,14,09,18,9.40
2013,10,14,09,19,9.40
2013,10,14,09,20,9.40
2013,10,14,09,21,9.40
2013,10,14,09,22,9.50
2013,10,14,09,23,9.50
2013,10,14,09,24,9.50
2013,10,14,09,25,9.50
2013,10,14,09,26,9.60
2013,10,14,09,27,9.60
2013,10,14,09,28,9.60
2013,10,14,09,29,9.60
2013,10,14,09,30,9.60
2013,10,14,09,31,9.60
2013,10,14,09,32,9.60
2013,10,14,09,33,9.70
2013,10,14,09,34,9.70
2013,10,14,09,35,9.70
2013,10,14,09,36,9.70
2013,10,14,09,37,9.80
2013,10,14,09,38,9.80
2013,10,14,09,39,9.80
2013,10,14,09,40,9.90
2013,10,14,09,41,9.90
2013,10,14,09,42,10.00
2013,10,14,09,43,10.00
2013,10,14,09,44,10.10
2013,10,14,09,45,10.10
2013,10,14,09,46,10.10
2013,10,14,09,47,10.20
2013,10,14,09,48,10.20
2013,10,14,09,49,10.20
2013,10,14,09,50,10.30
2013,10,14,09,51,10.30
2013,10,14,09,52,10.30
2013,10,14,09,53,10.40
2013,10,14,09,54,10.40
2013,10,14,09,55,10.40
2013,10,14,09,56,10.40
2013,10,14,09,57,10.40
2013,10,14,09,58,10.40
2013,10,14,09,59,10.40
2013,10,14,10,00,10.40
2013,10,14,10,01,10.40
2013,10,14,10,02,10.40
2013,10,14,10,03,10.40
2013,10,14,10,04,10.50
2013,10,14,10,05,10.50
2013,10,14,10,06,10.50
2013,10,14,10,07,10.50
2013,10,14,10,08,10.50
2013,10,14,10,09,10.60
2013,10,14,10,10,10.60
2013,10,14,10,11,10.70
2013,10,14,10,12,10.70
2013,10,14,10,13,10.70
2013,10,14,10,14,10.70
2013,10,14,10,15,10.70
2013,10,14,10,16,10.70
2013,10,14,10,17,10.70
2013,10,14,10,18,10.80
2013,10,14,10,19,10.80
2013,10,14,10,20,10.80
2013,10,14,10,21,10.80
2013,10,14,10,22,10.80
2013,10,14,10,23,10.80
2013,10,14,10,24,10.70
2013,10,14,10,25,10.70
2013,10,14,10,26,10.70
2013,10,14,10,27,10.70
2013,10,14,10,28,10.70
2013,10,14,10,29,10.70
2013,10,14,10,30,10.70
2013,10,14,10,31,10.70
2013,10,14,10,32,10.70
2013,10,14,10,33,10.70
2013,10,14,10,34,10.80
2013,10,14,10,35,10.80
2013,10,14,10,36,10.80
2013,10,14,10,37,10.80
2013,10,14,10,38,10.80
2013,10,14,10,39,10.80
2013,10,14,10,40,10.80
2013,10,14,10,41,10.80
2013,10,14,10,42,10.90
2013,10,14,10,43,10.90
2013,10,14,10,44,10.90
2013,10,14,10,45,10.90
2013,10,14,10,46,10.90
2013,10,14,10,47,10.90
2013,10,14,10,48,10.90
2013,10,14,10,49,10.90
2013,10,14,10,50,10.90
2013,10,14,10,51,10.90
2013,10,14,10,52,10.90
2013,10,14,10,53,10.90
2013,10,14,10,54,10.90
2013,10,14,10,55,10.90
2013,10,14,10,56,10.90
2013,10,14,10,57,10.90
2013,10,14,10,58,10.90
2013,10,14,10,59,11.00
2013,10,14,11,00,11.00
2013,10,14,11,01,11.10
2013,10,14,11,02,11.10
2013,10,14,11,03,11.10
2013,10,14,11,04,11.00
2013,10,14,11,05,11.00
2013,10,14,11,06,10.90
2013,10,14,11,07,10.90
2013,10,14,11,08,10.80
2013,10,14,11,09,10.80
2013,10,14,11,10,10.80
2013,10,14,11,11,10.80
2013,10,14,11,12,10.80
2013,10,14,11,13,10.90
2013,10,14,11,14,10.90
2013,10,14,11,15,10.90
2013,10,14,11,16,10.90
2013,10,14,11,17,10.90
2013,10,14,11,18,10.90
2013,10,14,11,19,11.00
2013,10,14,11,20,11.00
2013,10,14,11,21,11.10
2013,10,14,11,22,11.10
2013,10,14,11,23,11.20
2013,10,14,11,24,11.20
2013,10,14,11,25,11.20
2013,10,14,11,26,11.20
2013,10,14,11,27,11.30
2013,10,14,11,28,11.30
2013,10,14,11,29,11.30
2013,10,14,11,30,11.20
2013,10,14,11,31,11.20
2013,10,14,11,32,11.20
2013,10,14,11,33,11.10
2013,10,14,11,34,11.00
2013,10,14,11,35,11.00
2013,10,14,11,36,11.00
2013,10,14,11,37,11.10
2013,10,14,11,38,11.10
2013,10,14,11,39,11.10
2013,10,14,11,40,11.10
2013,10,14,11,41,11.10
2013,10,14,11,42,11.10
2013,10,14,11,43,11.20
2013,10,14,11,44,11.30
2013,10,14,11,45,11.30
2013,10,14,11,46,11.30
2013,10,14,11,47,11.30
2013,10,14,11,48,11.30
2013,10,14,11,49,11.30
2013,10,14,11,50,11.30
2013,10,14,11,51,11.30
2013,10,14,11,52,11.40
2013,10,14,11,53,11.50
2013,10,14,11,54,11.60
2013,10,14,11,55,11.60
2013,10,14,11,56,11.60
2013,10,14,11,57,11.40
2013,10,14,11,58,11.40
2013,10,14,11,59,11.30
2013,10,14,12,00,11.30
2013,10,14,12,01,11.30
2013,10,14,12,02,11.30
2013,10,14,12,03,11.30
2013,10,14,12,04,11.30
2013,10,14,12,05,11.30
2013,10,14,12,06,11.30
2013,10,14,12,07,11.30
2013,10,14,12,08,11.40
2013,10,14,12,09,11.40
2013,10,14,12,10,11.50
2013,10,14,12,11,11.60
2013,10,14,12,12,11.60
2013,10,14,12,13,11.70
2013,10,14,12,14,11.60
2013,10,14,12,15,11.60
2013,10,14,12,16,11.60
2013,10,14,12,17,11.60
2013,10,14,12,18,11.60
2013,10,14,12,19,11.60
2013,10,14,12,20,11.60
2013,10,14,12,21,11.70
2013,10,14,12,22,11.70
2013,10,14,12,23,11.80
2013,10,14,12,24,11.80
2013,10,14,12,25,11.80
2013,10,14,12,26,11.80
2013,10,14,12,27,11.90
2013,10,14,12,28,11.80
2013,10,14,12,29,11.90
2013,10,14,12,30,11.90
2013,10,14,12,31,12.00
2013,10,14,12,32,12.10
2013,10,14,12,33,12.10
2013,10,14,12,34,12.20
2013,10,14,12,35,12.30
2013,10,14,12,36,12.30
2013,10,14,12,37,12.30
2013,10,14,12,38,12.30
2013,10,14,12,39,12.30
2013,10,14,12,40,12.20
2013,10,14,12,41,12.30
2013,10,14,12,42,12.30
2013,10,14,12,43,12.30
2013,10,14,12,44,12.20
2013,10,14,12,45,12.20
2013,10,14,12,46,12.20
2013,10,14,12,47,12.20
2013,10,14,12,48,12.20
2013,10,14,12,49,12.30
2013,10,14,12,50,12.40
2013,10,14,12,51,12.40
2013,10,14,12,52,12.40
2013,10,14,12,53,12.40
2013,10,14,12,54,12.50
2013,10,14,12,55,12.50
2013,10,14,12,56,12.50
2013,10,14,12,57,12.50
2013,10,14,12,58,12.50
2013,10,14,12,59,12.60
2013,10,14,13,00,12.60
2013,10,14,13,01,12.50
2013,10,14,13,02,12.50
2013,10,14,13,03,12.50
2013,10,14,13,04,12.60
2013,10,14,13,05,12.70
2013,10,14,13,06,12.70
2013,10,14,13,07,12.70
2013,10,14,13,08,12.60
2013,10,14,13,09,12.50
2013,10,14,13,10,12.40
2013,10,14,13,11,12.40
2013,10,14,13,12,12.30
2013,10,14,13,13,12.30
2013,10,14,13,14,12.30
2013,10,14,13,15,12.30
2013,10,14,13,16,12.30
2013,10,14,13,17,12.30
2013,10,14,13,18,12.40
2013,10,14,13,19,12.40
2013,10,14,13,20,12.50
2013,10,14,13,21,12.60
2013,10,14,13,22,12.70
2013,10,14,13,23,12.70
2013,10,14,13,24,12.70
2013,10,14,13,25,12.70
2013,10,14,13,26,12.70
2013,10,14,13,27,12.80
2013,10,14,13,28,12.80
2013,10,14,13,29,12.80
2013,10,14,13,30,12.80
2013,10,14,13,31,12.70
2013,10,14,13,32,12.70
2013,10,14,13,33,12.70
2013,10,14,13,34,12.80
2013,10,14,13,35,12.80
2013,10,14,13,36,12.90
2013,10,14,13,37,12.90
2013,10,14,13,38,13.00
2013,10,14,13,39,13.10
2013,10,14,13,40,13.10
2013,10,14,13,41,13.20
2013,10,14,13,42,13.20
2013,10,14,13,43,13.20
2013,10,14,13,44,13.30
2013,10,14,13,45,13.30
2013,10,14,13,46,13.30
2013,10,14,13,47,13.30
2013,10,14,13,48,13.30
2013,10,14,13,49,13.30
2013,10,14,13,50,13.30
2013,10,14,13,51,13.30
2013,10,14,13,52,13.30
2013,10,14,13,53,13.40
2013,10,14,13,54,13.40
2013,10,14,13,55,13.50
2013,10,14,13,56,13.60
2013,10,14,13,57,13.50
2013,10,14,13,58,13.50
2013,10,14,13,59,13.40
2013,10,14,14,00,13.30
2013,10,14,14,01,13.30
2013,10,14,14,02,13.40
2013,10,14,14,03,13.50
2013,10,14,14,04,13.60
2013,10,14,14,05,13.70
2013,10,14,14,06,13.70
2013,10,14,14,07,13.70
2013,10,14,14,08,13.70
2013,10,14,14,09,13.70
2013,10,14,14,10,13.70
2013,10,14,14,11,13.80
2013,10,14,14,12,13.80
2013,10,14,14,13,13.90
2013,10,14,14,14,13.90
2013,10,14,14,15,13.90
2013,10,14,14,16,14.00
2013,10,14,14,17,14.00
2013,10,14,14,18,14.10
2013,10,14,14,19,14.00
2013,10,14,14,20,14.00
2013,10,14,14,21,13.90
2013,10,14,14,22,13.90
2013,10,14,14,23,13.90
2013,10,14,14,24,13.90
2013,10,14,14,25,13.90
2013,10,14,14,26,13.90
2013,10,14,14,27,13.90
2013,10,14,14,28,13.80
2013,10,14,14,29,13.80
2013,10,14,14,30,13.70
2013,10,14,14,31,13.70
2013,10,14,14,32,13.80
2013,10,14,14,33,13.80
2013,10,14,14,34,13.80
2013,10,14,14,35,13.90
2013,10,14,14,36,13.90
2013,10,14,14,37,13.90
2013,10,14,14,38,13.90
2013,10,14,14,39,14.00
2013,10,14,14,40,14.10
2013,10,14,14,41,14.10
2013,10,14,14,42,14.10
2013,10,14,14,43,14.10
2013,10,14,14,44,14.10
2013,10,14,14,45,14.10
2013,10,14,14,46,14.10
2013,10,14,14,47,14.10
2013,10,14,14,48,14.20
2013,10,14,14,49,14.20
2013,10,14,14,50,14.30
2013,10,14,14,51,14.30
2013,10,14,14,52,14.30
2013,10,14,14,53,14.40
2013,10,14,14,54,14.40
2013,10,14,14,55,14.40
2013,10,14,14,56,14.40
2013,10,14,14,57,14.40
2013,10,14,14,58,14.40
2013,10,14,14,59,14.40
2013,10,14,15,00,14.40
2013,10,14,15,01,14.40
2013,10,14,15,02,14.40
2013,10,14,15,03,14.40
2013,10,14,15,04,14.30
2013,10,14,15,05,14.20
2013,10,14,15,06,14.20
2013,10,14,15,07,14.20
2013,10,14,15,08,14.10
2013,10,14,15,09,14.00
2013,10,14,15,10,13.90
2013,10,14,15,11,13.90
2013,10,14,15,12,13.80
2013,10,14,15,13,13.80
2013,10,14,15,14,13.70
2013,10,14,15,15,13.70
2013,10,14,15,16,13.60
2013,10,14,15,17,13.60
2013,10,14,15,18,13.70
2013,10,14,15,19,13.80
2013,10,14,15,20,13.80
2013,10,14,15,21,13.90
2013,10,14,15,22,13.90
2013,10,14,15,23,13.90
2013,10,14,15,24,13.90
2013,10,14,15,25,14.00
2013,10,14,15,26,14.00
2013,10,14,15,27,14.10
2013,10,14,15,28,14.10
2013,10,14,15,29,14.20
2013,10,14,15,30,14.20
2013,10,14,15,31,14.20
2013,10,14,15,32,14.20
2013,10,14,15,33,14.20
2013,10,14,15,34,14.30
2013,10,14,15,35,14.40
2013,10,14,15,36,14.40
2013,10,14,15,37,14.40
2013,10,14,15,38,14.30
2013,10,14,15,39,14.30
2013,10,14,15,40,14.30
2013,10,14,15,41,14.20
2013,10,14,15,42,14.10
2013,10,14,15,43,14.10
2013,10,14,15,44,14.10
2013,10,14,15,45,14.10
2013,10,14,15,46,14.20
2013,10,14,15,47,14.20
2013,10,14,15,48,14.30
2013,10,14,15,49,14.30
2013,10,14,15,50,14.30
2013,10,14,15,51,14.40
2013,10,14,15,52,14.40
2013,10,14,15,53,14.50
2013,10,14,15,54,14.50
2013,10,14,15,55,14.50
2013,10,14,15,56,14.60
2013,10,14,15,57,14.60
2013,10,14,15,58,14.60
2013,10,14,15,59,14.50
2013,10,14,16,00,14.40
2013,10,14,16,01,14.30
2013,10,14,16,02,14.30
2013,10,14,16,03,14.20
2013,10,14,16,04,14.10
2013,10,14,16,05,14.00
2013,10,14,16,06,14.00
2013,10,14,16,07,13.90
2013,10,14,16,08,13.90
2013,10,14,16,09,13.90
2013,10,14,16,10,13.90
2013,10,14,16,11,13.90
2013,10,14,16,12,13.90
2013,10,14,16,13,13.90
2013,10,14,16,14,13.90
2013,10,14,16,15,13.80
2013,10,14,16,16,13.90
2013,10,14,16,17,13.90
2013,10,14,16,18,13.80
2013,10,14,16,19,13.80
2013,10,14,16,20,13.80
2013,10,14,16,21,13.80
2013,10,14,16,22,13.80
2013,10,14,16,23,13.80
2013,10,14,16,24,13.70
2013,10,14,16,25,13.70
2013,10,14,16,26,13.70
2013,10,14,16,27,13.70
2013,10,14,16,28,13.70
2013,10,14,16,29,13.70
2013,10,14,16,30,13.70
2013,10,14,16,31,13.60
2013,10,14,16,32,13.60
2013,10,14,16,33,13.60
2013,10,14,16,34,13.60
2013,10,14,16,35,13.60
2013,10,14,16,36,13.70
2013,10,14,16,37,13.70
2013,10,14,16,38,13.80
2013,10,14,16,39,13.80
2013,10,14,16,40,13.90
2013,10,14,16,41,14.00
2013,10,14,16,42,14.10
2013,10,14,16,43,14.10
2013,10,14,16,44,14.10
2013,10,14,16,45,14.10
2013,10,14,16,46,14.10
2013,10,14,16,47,14.00
2013,10,14,16,48,14.00
2013,10,14,16,49,13.90
2013,10,14,16,50,13.90
2013,10,14,16,51,13.90
2013,10,14,16,52,13.80
2013,10,14,16,53,13.80
2013,10,14,16,54,13.80
2013,10,14,16,55,13.80
2013,10,14,16,56,13.70
2013,10,14,16,57,13.70
2013,10,14,16,58,13.70
2013,10,14,16,59,13.80
2013,10,14,17,00,13.80
2013,10,14,17,01,13.80
2013,10,14,17,02,13.80
2013,10,14,17,03,13.90
2013,10,14,17,04,13.90
2013,10,14,17,05,13.90
2013,10,14,17,06,13.90
2013,10,14,17,07,13.90
2013,10,14,17,08,13.90
2013,10,14,17,09,14.00
2013,10,14,17,10,14.00
2013,10,14,17,11,13.90
2013,10,14,17,12,13.90
2013,10,14,17,13,13.90
2013,10,14,17,14,13.90
2013,10,14,17,15,13.90
2013,10,14,17,16,13.90
2013,10,14,17,17,13.90
2013,10,14,17,18,13.90
2013,10,14,17,19,13.90
2013,10,14,17,20,14.00
2013,10,14,17,21,14.00
2013,10,14,17,22,14.00
2013,10,14,17,23,14.10
2013,10,14,17,24,14.10
2013,10,14,17,25,14.10
2013,10,14,17,26,14.00
2013,10,14,17,27,13.90
2013,10,14,17,28,13.80
2013,10,14,17,29,13.70
2013,10,14,17,30,13.70
2013,10,14,17,31,13.60
2013,10,14,17,32,13.60
2013,10,14,17,33,13.60
2013,10,14,17,34,13.50
2013,10,14,17,35,13.50
2013,10,14,17,36,13.40
2013,10,14,17,37,13.40
2013,10,14,17,38,13.40
2013,10,14,17,39,13.40
2013,10,14,17,40,13.40
2013,10,14,17,41,13.40
2013,10,14,17,42,13.40
2013,10,14,17,43,13.40
2013,10,14,17,44,13.40